Voltar ao catálogo

USA 268

AtivoMilitarGEO
NORAD 41584·PAYLOAD·🇺🇸 United States

Lançado Jun 11, 2016 de Cape Canaveral Space Force Station

Loading…

TLE

AtualizadoSource: Mike McCants

Época: Sep 15, 2026, 17:41 UTC

1 41584U 16036A   26258.73742291  .00000000  00000-0  00000-0 0    09
2 41584   6.0129   4.9781 0051998  75.2468 285.3496  1.00270000 18348

Acompanhe USA 268 em tempo real com AllMySat

Download on the App Store